Weather History for Whitefield, NH

Change the Weather History Date:

Friday, December 30, 2011

  Actual Average Record
Temperature  
Mean Temperature 11 °F -  
Max Temperature 21 °F 26 °F 39 °F (2003)
Min Temperature 1 °F 5 °F -7 °F (2002)
Degree Days  
Heating Degree Days 54    
Moisture  
Dew Point 11 °F    
Average Humidity 85    
Maximum Humidity 93    
Minimum Humidity 79    
Precipitation  
Precipitation 0.01 in - - ()
Sea Level Pressure  
Sea Level Pressure 30.07 in    
Wind  
Wind Speed 0 mph (North)    
Max Wind Speed 0 mph    
Max Gust Speed -    
Visibility 7 miles    
Events Fog , Snow    
Averages and records for this station are not official NWS values.
T = Trace of Precipitation, MM = Missing Value Source: NWS Daily Summary

Daily Weather History Graph

Daily Weather History Graph

Search for Another Location

Airport:

Trip Planner

Search our weather history database for the weather conditions in past years. The results will help you decide how hot, cold, wet, or windy it might be!

Date:

Astronomy

Dec. 30, 2011 Rise Set
Actual Time 7:21 AM EST 4:15 PM EST
Civil Twilight 6:48 AM EST 4:48 PM EST
Nautical Twilight 6:12 AM EST 5:25 PM EST
Astronomical Twilight 5:36 AM EST 6:00 PM EST
Moon 10:25 AM EST (12/30) 11:04 PM EST (12/30)
Length of Visible Light 9h 59m
Length of Day
8h 53m
Waxing Crescent, 35% of the Moon is Illuminated
Dec 30
Waxing Crescent
Jan 1
First Quarter
Jan 9
Full
Jan 16
Last Quarter
Jan 23
New

Hourly Weather History & Observations

Time (EST) Temp. Dew Point Humidity Pressure Visibility Wind Dir Wind Speed Gust Speed Precip Events Conditions
12:52 AM 3.0 °F -0.9 °F 84% 30.05 in 10.0 mi Calm Calm - N/A   Clear
1:52 AM 3.0 °F -0.9 °F 84% 30.06 in 10.0 mi Calm Calm - N/A   Clear
2:52 AM 1.9 °F -2.0 °F 83% 30.07 in 10.0 mi Calm Calm - N/A   Clear
3:52 AM 3.0 °F -0.9 °F 84% 30.07 in 10.0 mi Calm Calm - N/A   Clear
4:52 AM 3.0 °F -0.9 °F 84% 30.07 in 10.0 mi Calm Calm - N/A   Clear
5:52 AM 3.9 °F -0.0 °F 84% 30.08 in 10.0 mi Calm Calm - N/A   Clear
7:52 AM 6.1 °F 3.0 °F 87% 30.12 in 10.0 mi Calm Calm - N/A   Mostly Cloudy
8:52 AM 9.0 °F 6.1 °F 88% 30.13 in 10.0 mi Calm Calm - N/A   Overcast
9:52 AM 12.0 °F 8.1 °F 84% 30.14 in 2.0 mi Calm Calm - 0.00 in Snow Light Snow
10:16 AM 12.2 °F 8.6 °F 85% 30.06 in 5.0 mi Calm Calm - 0.00 in Snow Light Snow
10:52 AM 14.0 °F 10.0 °F 84% 30.12 in 10.0 mi Calm Calm - 0.00 in   Overcast
11:34 AM 15.8 °F 10.4 °F 79% 30.02 in 2.0 mi Calm Calm - 0.00 in Snow Light Snow
11:41 AM 15.8 °F 10.4 °F 79% 30.02 in 1.2 mi Calm Calm - 0.00 in Snow Light Snow
11:44 AM 15.8 °F 10.4 °F 79% 30.01 in 0.8 mi Calm Calm - 0.00 in Snow Light Snow
11:52 AM 16.0 °F 12.0 °F 84% 30.09 in 0.5 mi Calm Calm - 0.00 in Fog , Snow Snow
12:05 PM 15.8 °F 12.2 °F 86% 30.01 in 0.5 mi Calm Calm - 0.01 in Fog , Snow Snow
12:16 PM 15.8 °F 12.2 °F 86% 30.00 in 1.0 mi Calm Calm - 0.01 in Snow Light Snow
12:28 PM 15.8 °F 12.2 °F 86% 30.01 in 6.0 mi Calm Calm - 0.01 in Snow Light Snow
12:37 PM 17.6 °F 12.2 °F 79% 30.00 in 1.8 mi Calm Calm - 0.01 in Snow Light Snow
12:47 PM 17.6 °F 12.2 °F 79% 30.00 in 4.0 mi Calm Calm - 0.01 in Snow Light Snow
1:17 PM 17.6 °F 12.2 °F 79% 30.00 in 8.0 mi Calm Calm - 0.00 in Snow Light Snow
1:27 PM 17.6 °F 14.0 °F 86% 30.00 in 1.8 mi Calm Calm - 0.00 in Snow Light Snow
1:41 PM 17.6 °F 14.0 °F 86% 30.00 in 3.0 mi Calm Calm - 0.00 in Snow Light Snow
1:52 PM 18.0 °F 14.0 °F 84% 30.08 in 8.0 mi Calm Calm - 0.00 in   Overcast
2:19 PM 17.6 °F 14.0 °F 86% 30.01 in 2.5 mi Calm Calm - 0.00 in Snow Light Snow
2:40 PM 17.6 °F 15.8 °F 93% 30.02 in 5.0 mi Calm Calm - 0.01 in Snow Light Snow
2:52 PM 18.0 °F 14.0 °F 84% 30.10 in 6.0 mi Calm Calm - 0.01 in Snow Light Snow
3:52 PM 19.0 °F 15.1 °F 85% 30.11 in 8.0 mi Calm Calm - 0.00 in Snow Light Snow
4:52 PM 19.9 °F 16.0 °F 85% 30.12 in 10.0 mi Calm Calm - 0.00 in   Overcast
5:04 PM 19.4 °F 15.8 °F 86% 30.05 in 10.0 mi Calm Calm - N/A   Overcast
5:52 PM 19.9 °F 16.0 °F 85% 30.13 in 10.0 mi Calm Calm - N/A   Overcast
6:52 PM 19.9 °F 17.1 °F 89% 30.13 in 10.0 mi Calm Calm - N/A   Overcast
7:52 PM 21.0 °F 17.1 °F 85% 30.13 in 10.0 mi Calm Calm - N/A   Overcast
8:52 PM 21.0 °F 18.0 °F 88% 30.12 in 10.0 mi Calm Calm - N/A   Overcast
9:52 PM 21.0 °F 18.0 °F 88% 30.12 in 10.0 mi Calm Calm - N/A   Mostly Cloudy
10:52 PM 21.9 °F 19.0 °F 89% 30.11 in 10.0 mi Calm Calm - N/A   Overcast
11:52 PM 21.9 °F 19.0 °F 89% 30.09 in 10.0 mi Calm Calm - N/A   Overcast